This is the latest recevied weather packets stored in our database for station/object SM6LNJ-13. If no packets are shown the sender has not sent any weather packets the latest 10 day(s).
| Time | Temp. | Humidity | Pressure | Rain* | Wind** | Luminosity | Snow |
|---|---|---|---|---|---|---|---|
| 1777495306 | 6.67° C | 91% | 1414.9 hPa | 0 mm | - | - | - |
| 1777491826 | 7.22° C | 90% | 1416 hPa | 0 mm | - | - | - |
| 1777484633 | 8.33° C | 87% | 1415.4 hPa | 0 mm | - | - | - |
| 1777481626 | 8.89° C | 84% | 1417.1 hPa | 0 mm | - | - | - |
| 1777481386 | 8.89° C | 84% | 1417 hPa | 0 mm | - | - | - |
| 1777481266 | 8.89° C | 84% | 1417 hPa | 0 mm | - | - | - |
| 1777481026 | 8.89° C | 84% | 1417.2 hPa | 0 mm | - | - | - |
| 1777480906 | 8.89° C | 84% | 1416.8 hPa | 0 mm | - | - | - |
| 1777480786 | 8.89° C | 83% | 1416.6 hPa | 0 mm | - | - | - |
| 1777480666 | 8.89° C | 83% | 1416.7 hPa | 0 mm | - | - | - |
| 1777480546 | 8.89° C | 83% | 1416.9 hPa | 0 mm | - | - | - |
| 1777480306 | 8.89° C | 83% | 1416.5 hPa | 0 mm | - | - | - |
| 1777480186 | 8.89° C | 82% | 1416.6 hPa | 0 mm | - | - | - |
| 1777480066 | 8.89° C | 82% | 1416.9 hPa | 0 mm | - | - | - |
| 1777479946 | 8.89° C | 82% | 1416.9 hPa | 0 mm | - | - | - |
| 1777479353 | 9.44° C | 80% | 1418 hPa | 0 mm | - | - | - |
| 1777479233 | 9.44° C | 80% | 1418.1 hPa | 0 mm | - | - | - |
| 1777478993 | 10° C | 79% | 1418.7 hPa | 0 mm | - | - | - |
| 1777478873 | 10° C | 79% | 1418.9 hPa | 0 mm | - | - | - |
| 1777478753 | 10° C | 79% | 1419.1 hPa | 0 mm | - | - | - |
| 1777478273 | 10° C | 77% | 1419.5 hPa | 0 mm | - | - | - |
| 1777477433 | 11.11° C | 76% | 1421.6 hPa | 0 mm | - | - | - |
| 1777470953 | 17.22° C | 60% | 1435.8 hPa | 0 mm | - | - | - |
| 1777470832 | 17.22° C | 60% | 1436.3 hPa | 0 mm | - | - | - |
| 1777470713 | 17.22° C | 61% | 1436.1 hPa | 0 mm | - | - | - |
* Rain latest hour (hover to see other rain measurements)
** Current wind speed in m/s (hover to see current wind gust speed)